K3GM Weather Reports


Display with metric or nautical units.
time (UTC)temp
F
wind
direction
speed
MPH
gust
MPH
rain 1hr
in
rain 24hr
in
rain mn
in
humidity
%
barometer
mb
20260506221535 69 0 0.0 3.0 0.00 0.01 0.01 77 1008.3
20260506220039 69 0 0.0 3.0 0.00 0.01 0.01 77 1008.0
20260506214543 68 266 0.0 4.0 0.00 0.01 0.01 78 1008.1
20260506213036 68 0 0.0 2.0 0.00 0.01 0.01 71 1007.9
20260506211534 67 0 0.0 2.0 0.00 0.01 0.01 79 1008.1
20260506210035 68 0 0.0 3.0 0.00 0.01 0.01 78 1008.0
20260506204542 68 226 0.0 4.0 0.00 0.01 0.01 77 1007.7
20260506203035 68 0 0.0 2.0 0.00 0.01 0.01 79 1007.7
20260506201535 67 207 0.0 4.0 0.00 0.01 0.01 79 1007.7
20260506200035 67 0 0.0 2.0 0.00 0.01 0.01 80 1007.8
20260506194542 66 0 0.0 3.0 0.00 0.01 0.01 81 1007.9
20260506193038 66 0 0.0 4.0 0.00 0.01 0.01 82 1008.3
20260506191537 66 0 1.0 5.0 0.00 0.01 0.01 82 1008.3
20260506190035 66 0 0.0 3.0 0.00 0.01 0.01 83 1008.4
20260506184535 65 178 1.0 5.0 0.00 0.01 0.01 84 1008.5
20260506183035 65 0 0.0 4.0 0.00 0.01 0.01 84 1008.6
20260506181544 66 151 0.0 5.0 0.00 0.01 0.01 81 1008.8
20260506180051 66 189 1.0 6.0 0.00 0.01 0.01 81 1008.7
20260506174533 66 0 1.0 7.0 0.00 0.01 0.01 81 1008.9
20260506173041 66 166 2.0 6.0 0.00 0.01 0.01 82 1008.8
20260506171535 66 0 1.0 7.0 0.01 0.01 0.01 82 1009.1
20260506170033 66 173 2.0 9.0 0.01 0.01 0.01 75 1009.1
20260506164536 67 0 0.0 6.0 0.01 0.01 0.01 83 1009.2
20260506163038 66 0 0.0 2.0 0.01 0.01 0.01 84 1009.4
20260506161536 67 0 0.0 2.0 0.00 0.00 0.00 82 1010.0
20260506160036 67 0 0.0 1.0 0.00 0.00 0.00 79 1010.2
20260506154540 67 0 0.0 3.0 0.00 0.00 0.00 69 1010.4
20260506153035 68 0 0.0 4.0 0.00 0.00 0.00 66 1010.2
20260506151536 69 0 1.0 6.0 0.00 0.00 0.00 68 1010.2
20260506150035 69 0 1.0 7.0 0.00 0.00 0.00 60 1010.1
20260506144544 68 0 0.0 8.0 0.00 0.00 0.00 61 1010.4
20260506143038 68 0 1.0 6.0 0.00 0.00 0.00 60 1010.3
20260506141537 69 196 3.0 7.0 0.00 0.00 0.00 66 1010.2
20260506140036 69 171 0.0 6.0 0.00 0.00 0.00 61 1010.2
20260506134536 68 155 0.0 5.0 0.00 0.00 0.00 70 1010.0
20260506133035 67 182 0.0 5.0 0.00 0.00 0.00 71 1010.1
20260506131536 68 197 2.0 6.0 0.00 0.00 0.00 70 1010.3
20260506130038 68 0 2.0 10.0 0.00 0.00 0.00 70 1010.3
20260506124538 68 173 2.0 6.0 0.00 0.00 0.00 63 1010.2
20260506123036 67 183 1.0 8.0 0.00 0.00 0.00 71 1010.2
20260506121534 66 142 1.0 5.0 0.00 0.00 0.00 66 1010.3
20260506120038 65 0 2.0 12.0 0.00 0.00 0.00 75 1010.4
20260506114535 65 144 2.0 6.0 0.00 0.00 0.00 75 1010.5
20260506113033 65 171 1.0 7.0 0.00 0.00 0.00 76 1010.5
20260506111533 65 181 3.0 11.0 0.00 0.00 0.00 76 1010.3
20260506110042 64 162 1.0 8.0 0.00 0.00 0.00 77 1010.4
20260506104537 64 0 2.0 9.0 0.00 0.00 0.00 79 1010.3
20260506103037 63 154 0.0 11.0 0.00 0.00 0.00 80 1010.3
20260506101536 63 0 1.0 5.0 0.00 0.00 0.00 81 1010.5
20260506100035 63 0 0.0 7.0 0.00 0.00 0.00 81 1010.3
20260506094535 63 147 0.0 7.0 0.00 0.00 0.00 81 1010.3
20260506093040 64 0 0.0 7.0 0.00 0.00 0.00 80 1010.1
20260506091537 64 0 1.0 8.0 0.00 0.00 0.00 80 1010.2
20260506090039 64 0 0.0 7.0 0.00 0.00 0.00 79 1010.4
20260506084537 64 0 1.0 11.0 0.00 0.00 0.00 79 1010.4
20260506083038 65 0 1.0 5.0 0.00 0.00 0.00 79 1010.5
20260506081535 65 167 1.0 7.0 0.00 0.00 0.00 78 1010.5
20260506073033 65 0 0.0 5.0 0.00 0.00 0.00 78 1010.5
20260506071537 65 147 0.0 8.0 0.00 0.00 0.00 78 1010.6
20260506061532 66 159 0.0 2.0 0.00 0.00 0.00 77 1011.0
20260506044546 67 0 0.0 4.0 0.00 0.00 0.00 73 1011.5
20260506043036 67 192 1.0 7.0 0.00 0.00 0.00 72 1011.5
20260506041547 67 159 1.0 5.0 0.00 0.00 0.00 71 1011.4
20260506040038 68 161 2.0 9.0 0.00 0.00 0.00 69 1011.4
20260506034533 68 165 0.0 7.0 0.00 0.00 0.00 68 1011.4
20260506033032 68 177 1.0 6.0 0.00 0.00 0.00 67 1011.2
20260506031536 69 157 1.0 8.0 0.00 0.00 0.00 66 1011.2
20260506030033 69 171 1.0 6.0 0.00 0.00 0.00 65 1011.4
20260506024537 69 0 1.0 7.0 0.00 0.00 0.00 64 1011.3
20260506023034 70 169 1.0 8.0 0.00 0.00 0.00 62 1011.4
20260506021539 70 178 2.0 8.0 0.00 0.00 0.00 61 1011.3
20260506020036 70 0 0.0 8.0 0.00 0.00 0.00 60 1011.4
20260506014535 71 198 2.0 13.0 0.00 0.00 0.00 59 1011.2
20260506013039 71 0 1.0 16.0 0.00 0.00 0.00 60 1011.1
20260506011558 71 148 1.0 11.0 0.00 0.00 0.00 60 1011.1
20260506010030 71 173 3.0 9.0 0.00 0.00 0.00 59 1010.9
20260506004543 72 157 3.0 13.0 0.00 0.00 0.00 50 1010.9
20260506003035 73 168 0.0 15.0 0.00 0.00 0.00 53 1010.6
20260506001535 74 150 1.0 13.0 0.00 0.00 0.00 49 1010.2
20260506000039 76 153 0.0 9.0 0.00 0.00 0.00 40 1010.2
20260505234535 76 148 2.0 6.0 0.00 0.00 0.00 43 1010.2
20260505233036 77 173 1.0 7.0 0.00 0.00 0.00 43 1010.0
20260505231541 77 168 1.0 7.0 0.00 0.00 0.00 43 1009.8
20260505230035 78 185 2.0 6.0 0.00 0.00 0.00 34 1009.8
20260505224533 78 0 2.0 9.0 0.00 0.00 0.00 41 1009.6
20260505223036 79 200 2.0 8.0 0.00 0.00 0.00 41 1009.6